Regional Weather Roundup
Issued by NWS

Home | Current Version | Previous Version | Text Only | Print | Product List | Glossary Off
Versions: 1 2 3 4 5 6 7 8 9 10 11 12 13 14 15 16 17 18 19 20 21 22 23 24 25 26 27 28

000
ASUS45 KPSR 291110
RWRAZ

ARIZONA HOURLY REGIONAL WEATHER ROUNDUP
NATIONAL WEATHER SERVICE PHOENIX AZ
400 AM MST FRI JUL 29 2016

NOTE: FAIR INDICATES FEW OR NO CLOUDS BELOW 12,000 FEET WITH NO
SIGNIFICANT WEATHER AND/OR OBSTRUCTIONS TO VISIBILITY.

AZZ001>003-036-291200-
NORTHWEST ARIZONA

CITY           SKY/WX    TMP DP  RH WIND       PRES   REMARKS
BULLHEAD CITY  PTCLDY    97  52  21 W3        29.71R
KINGMAN        PTCLDY    77  44  30 SE7       29.96S
$$

AZZ004>008-015-016-018-291200-
NORTH CENTRAL ARIZONA

CITY           SKY/WX    TMP DP  RH WIND       PRES   REMARKS
GRAND CANYON   MOCLDY    54  47  77 NE5       30.25S HAZE
WILLIAMS       CLOUDY    68  43  40 NW12      30.33R
PRESCOTT       CLOUDY    76  48  37 W6        30.12S
FLAGSTAFF      CLOUDY    65  43  44 SW8       30.26S
PAYSON         MOCLDY    72  48  43 CALM      30.14S
PAGE           CLEAR     80  41  24 W3        30.00S
$$

AZZ009>014-017-291200-
NORTHEAST ARIZONA

CITY           SKY/WX    TMP DP  RH WIND       PRES   REMARKS
WINSLOW        MOCLDY    67  47  48 SW3       30.09S
WINDOW ROCK    PTCLDY    59  43  55 CALM      30.24F
SHOW LOW       PTCLDY    64  43  45 SW7       30.23S
$$

AZZ023-291200-
GREATER PHOENIX AREA

CITY           SKY/WX    TMP DP  RH WIND       PRES   REMARKS
PHOENIX        MOCLDY    98  62  30 NW8       29.75R
BUCKEYE        CLOUDY    91  61  35 SW9       29.79R
LUKE AFB       CLOUDY    94  63  35 SW15      29.75R
DEER VALLEY    CLOUDY    94  61  33 SW10      29.78R
SCOTTSDALE     CLOUDY    96  61  31 CALM      29.80S
MESA-GATEWAY   MOCLDY    88  59  37 S5        29.79R
$$

AZZ027-028-291200-
SOUTHWEST MARICOPA COUNTY AND PINAL COUNTY

CITY           SKY/WX    TMP DP  RH WIND       PRES   REMARKS
CASA GRANDE    MOCLDY    90  63  40 S14       29.83S
GILA BEND      FAIR      93  61  34 SW9       29.78R
$$

AZZ503-504-507>509-291200-
SOUTHEAST ARIZONA

CITY           SKY/WX    TMP DP  RH WIND       PRES   REMARKS
TUCSON         PTCLDY    85  65  51 S8        29.94S
DAVIS-MONTHAN  CLEAR     83  65  55 S6        29.94R
NOGALES        CLEAR     72  67  84 SE3       30.05F
SIERRA VISTA   PTCLDY    72  59  62 W6        30.10S
DOUGLAS        PTCLDY    71  67  87 SE12      30.06R
SAFFORD        PTCLDY    79  54  41 CALM      29.95S
$$

AZZ020-021-025-026-031-291200-
SOUTHWEST ARIZONA

CITY           SKY/WX    TMP DP  RH WIND       PRES   REMARKS
YUMA           PTCLDY    86  74  67 S23       29.74R
$$

CAZ031-033-041-043-047-048-061-291200-
SOUTHERN CALIFORNIA

CITY           SKY/WX    TMP DP  RH WIND       PRES   REMARKS
DOWNTOWN L.A.  CLEAR     70  61  73 CALM      29.82S
L.A. AIRPORT   PTCLDY    70  63  78 W5        29.82F
SAN DIEGO      PTCLDY    70  66  87 N5        29.83F
BURBANK        CLEAR     74  57  55 CALM      29.83F
ONTARIO        CLEAR     75  56  51 SE3       29.84S
RIVERSIDE      CLEAR     76  53  44 CALM      29.84S
PALM SPRINGS   CLEAR     91  53  27 W5        29.75F
EL CENTRO NAS  CLEAR     87  73  62 SE12      29.72R
IMPERIAL       CLEAR     89  75  63 SE16      29.70R
NEEDLES        PTCLDY    98  53  22 S5        29.72S
$$

NVZ020-UTZ003-291200-
SOUTHERN NEVADA-UTAH

CITY           SKY/WX    TMP DP  RH WIND       PRES   REMARKS
LAS VEGAS      MOCLDY    95  48  20 S5        29.79R
SALT LAKE CITY CLEAR     75  44  33 S3        30.02S
$$

NMZ009-TXZ055-291200-
NEW MEXICO-WEST TEXAS

CITY           SKY/WX    TMP DP  RH WIND       PRES   REMARKS
ALBUQUERQUE    CLEAR     74  46  36 E8        30.17S
EL PASO        CLEAR     77  57  50 E6        30.06S
$$


........................KEY........................
SKY/WX - SKY CONDITION/WEATHER
TMP    - TEMPERATURE IN FAHRENHEIT
DP     - DEW POINT IN FAHRENHEIT
RH     - RELATIVE HUMIDITY IN PERCENT
WIND   - DIRECTION AND SPEED IN MILES PER HOUR (MPH)
VRB    - VARIABLE WIND DIRECTION
PRES   - MEAN SEA LEVEL PRESSURE IN INCHES OF MERCURY
         F - FALLING PRESSURE   R - RISING PRESSURE
         S - STEADY PRESSURE
VSB    - VISIBILITY IN MILES
HX     - HEAT INDEX IN FAHRENHEIT
WCI    - WIND CHILL INDEX IN FAHRENHEIT
TC     - TEMPERATURE IN CELSIUS WHICH IS ALSO KNOWN AS
         TEMPERATURE IN CENTIGRADE
AFB    - AIR FORCE BASE
         LUKE AFB IS LUKE AIR FORCE BASE
         DAVIS-MONTHAN IS DAVIS-MONTHAN AIR FORCE BASE
NAS    - NAVAL AIR STATION
         EL CENTRO NAS IS EL CENTRO NAVAL AIR STATION
N/A    - NOT AVAILABLE





USA.gov is the U.S. government's official web portal to all federal, state and local government web resources and services.